Find Starlink 34092

NORAD ID: 63904 Int'l Des: 2025-095 Owner: SPXS Country: US Constellation: starlink operational
LEOCIRCULAR

当前视图

正在加载3D地球...

About Starlink 34092

Starlink 34092 (NORAD 63904) is a starlink constellation satellite (v2 mini) launched May 10, 2025 by SPXS of US. It operates in LEO, CIRCULAR orbit with a mass of 575.00 kg.

即将过境

Passes for default location (London). Set your location on the main map for personalized predictions.

高度历史

Loading altitude history...

两行轨道根数

1 63904U 25095Q 26237.24882863 .00012897 00000-0 47745-3 0 9991
2 63904 43.0047 304.5546 0002404 294.7016 65.3585 15.27573868 73552
Epoch: Aug 25, 2026 • Age: 14 hours

当前状态

高度 493.1 km
远地点 / 近地点 N/A
速度 7.62 km/s
星下点 -37.43°S, 91.77°W
发射日期 May 10, 2025
运行时间 1.2 years
类型 internet

技术详情

分类 Payload
质量 575.00 kg
干质量 530.00 kg
总质量 575.00 kg
长度 0.30 m
直径 4.10 m
跨度 29.00 m
形状 Box + pan
制造商 SPXS
平台类型 Starlink V2MO
阶段状态 In Orbit
所有者/国家 SPXS/US

Most Searched